TimeEST,TemperatureF,Dew PointF,Humidity,Sea Level PressureIn,VisibilityMPH,Wind Direction,Wind SpeedMPH,Gust SpeedMPH,PrecipitationIn,Events,Conditions,WindDirDegrees,DateUTC
12:45 AM,28.4,23.0,80,29.60,10.0,WNW,13.8,-,N/A,,Scattered Clouds,300,2012-12-30 05:45:00
1:45 AM,28.4,23.0,80,29.61,10.0,NW,13.8,23.0,N/A,,Partly Cloudy,310,2012-12-30 06:45:00
2:45 AM,28.4,23.0,80,29.63,10.0,NW,17.3,28.8,N/A,,Partly Cloudy,310,2012-12-30 07:45:00
3:45 AM,28.4,21.2,74,29.68,20.0,WNW,17.3,28.8,N/A,,Scattered Clouds,300,2012-12-30 08:45:00
4:45 AM,26.6,19.4,74,29.71,20.0,WNW,17.3,28.8,N/A,,Scattered Clouds,290,2012-12-30 09:45:00
5:50 AM,26.6,19.4,74,29.73,20.0,NW,20.7,29.9,N/A,,Mostly Cloudy,310,2012-12-30 10:50:00
7:45 AM,26.6,17.6,69,29.80,20.0,NW,17.3,23.0,N/A,,Scattered Clouds,310,2012-12-30 12:45:00
9:45 AM,28.4,19.4,69,29.87,20.0,NW,17.3,28.8,N/A,,Mostly Cloudy,320,2012-12-30 14:45:00
10:50 AM,28.4,19.4,69,29.90,20.0,NW,17.3,28.8,N/A,,Mostly Cloudy,310,2012-12-30 15:50:00
11:45 AM,28.4,17.6,64,29.89,20.0,NW,23.0,34.5,N/A,,Mostly Cloudy,320,2012-12-30 16:45:00
12:50 PM,30.2,17.6,60,29.91,20.0,NW,23.0,34.5,N/A,,Scattered Clouds,320,2012-12-30 17:50:00
1:45 PM,30.2,15.8,55,29.92,20.0,NW,28.8,40.3,N/A,,Scattered Clouds,310,2012-12-30 18:45:00
2:45 PM,30.2,17.6,60,29.96,20.0,WNW,28.8,40.3,N/A,,Scattered Clouds,300,2012-12-30 19:45:00
3:45 PM,28.4,17.6,64,29.99,20.0,WNW,23.0,29.9,N/A,,Scattered Clouds,290,2012-12-30 20:45:00
4:45 PM,26.6,15.8,64,30.04,10.0,WNW,20.7,38.0,N/A,,Scattered Clouds,300,2012-12-30 21:45:00
5:45 PM,26.6,15.8,64,30.08,10.0,WNW,13.8,29.9,N/A,,Scattered Clouds,300,2012-12-30 22:45:00
6:45 PM,26.6,15.8,64,30.12,10.0,WNW,18.4,27.6,N/A,,Mostly Cloudy,290,2012-12-30 23:45:00
7:45 PM,24.8,15.8,69,30.13,10.0,WNW,16.1,23.0,N/A,,Scattered Clouds,290,2012-12-31 00:45:00
9:45 PM,24.8,14.0,64,30.13,10.0,NW,18.4,-,N/A,,Clear,310,2012-12-31 02:45:00
10:50 PM,42.8,33.8,70,30.34,10.0,East,4.6,-,N/A,,Clear,80,2012-12-31 03:50:00
11:45 PM,23.0,15.8,74,30.14,10.0,SW,6.9,-,N/A,,Clear,230,2012-12-31 04:45:00